Showing default

S5, 44065

Orbit data source: Space-Track

S5, 44065 is a payload satellite owned by AFRL/RV (US) in GEO that was launched on Fri, 22 Feb 2019 UTC via an FALCON 9 launch vehicle from the Air Force Eastern Test Range (AFETR). Payload-class satellites include a variety of spacecraft equipped with specific instruments for various scientific and technological missions. These include communications satellites like Starlink; space stations such as the ISS; scientific satellites like the Hubble; Earth observation satellites from companies like Planet Labs, Umbra, and HawkEye 360; GPS; miniature CubeSats for education and research; and military/defense satellites.

Loading next visibility...
Identifier
44065, 2019-009D
Orbit
GEO
Country
Flag of USUS
Related business
Manufacturer
Blue Canyon
Mission
Partially operational Defense Imaging
Bus & Motor
PODSAT, Unknown motor
Mass
61 kg wet, ~55 kg dry
Launch date (UTC)
2019-02-22 (8 years ago)
Launch vehicle
FALCON 9
Launch site
Air Force Eastern Test Range (AFETR)
Object type
Payload
Rocket body
Debris
Shape & HBR
Box + Cyl + 1 Pan, 0.4 m
Radar Cross Section
0.375 m², Large (>1 m²)

Expand to show TLE details & history
Last TLE update: 23 hours ago

TLE from 23 hours ago
0 S5
1 44065U 19009D   26257.43807639 -.00000020  00000-0  00000-0 0  9993
2 44065   6.7827  69.7281 0005125 135.8458 208.0221  0.99334681 27323
Epoch: 2026-09-14T10:30Z
TLE epoch observation values (Epoch: 2026-09-14T10:30:49.800Z)
Latitude
-1.90368°
Longitude
-97.46468°
Altitude
36,070.346 km
Speed
3.064 km/s
True Right ascension
03h 34m 38s
True Declination
-1° 54' 06"
Sunlit
Object was in daylight at epoch
Visualization orbit readout
Latitude
Unknown
Longitude
Unknown
Altitude
Unknown
Speed
Unknown
Apparent Right ascension
Unknown
Apparent Declination
Unknown
Sunlit
N/A
Visualization observer readout
Local Sidereal Time
01:46:05
Azimuth
Unknown
Elevation
Unknown
Doppler factor
Unknown
Orbital elements
Apogee altitude
36,074.15 km
Perigee altitude
36,030.659 km
Semi-major axis
42,430.542 km
Eccentricity
0.00051
Inclination
6.7827°
RAAN
69.7281°
Arg. of periapsis
135.8458°
True anomaly
207.99452°
Mean anomaly
208.0221°
Eccentric anomaly
208.00831°
Mean motion
0.24833 °/min
Orbital period
1,449.7 mins
BSTAR
0
Loading maneuver chart data...
Computing Atmospheric mass density...
Loading historical data...
Loading historical data...
Loading historical data...
Loading historical data...
Loading historical data...
Loading historical data...
Loading historical data...
Other satellites on launch #9 in the year 2019 (2019-02-22 UTC)

Documentation

Showing up to 5 results
|